Content
SEND FEEDBACK

Daily
Averages
Monthly
Summary
United States of America

MATAMORAS, PENNSYLVANIA


Home > North America > United States > Pennsylvania
Elevation: 484 feet     Latitude: 41 22N     Longitude: 074 41W

WEATHER
 
SELECT A DAY
Number of Records: 157,795;   Date Range: 3/7/98 - 7/26/14
 
SHARE

PRINT THIS DATA

[ ← Previous Day ]
WEATHER ALMANAC - APRIL 10, 2014
[ Next Day → ]
[ °C ]   °F
Weather ElementAverageHighLow
Temperature50.8 °F66 °F (3:53 pm)28 °F (4:53 am)
Dewpoint27.6 °F33.1 °F (10:53 pm)19 °F (1:53 am)
Humidity44.7 %78 % (5:53 am)27 % (4:53 pm)
Barometer30.07 in30.18 in (8:53 am)29.99 in (10:53 pm)
Wind Speed7.8 mph15 mph (3:53 pm)
Wind Gust26.5 mph (4:53 pm)
Weather ElementAverage
Visibility10 mi
Wind DirectionSSE (154.5 °)

Weather ElementTotal
Precipitation---
Heating Degree Days18 (Base 65)
Averaged from 22 records on April 10, 2014
WEATHER CONDITIONS BREAKOUT
WIND DIRECTION BREAKOUT
WEATHER BY HOUR - APRIL 10, 2014
[ °C ]   °F
Local TimeTemperatureDewpointHumidityBarometerVisibilityWind DirectionWind SpeedGust SpeedPrecipitationEventsConditions
1:53 AM30.9 °F19.0 °F61 %30.06 in10.0 miCalmClear
2:53 AM30.9 °F19.9 °F64 %30.07 in10.0 miWSW (250°)3.5 mphClear
3:53 AM30.0 °F21.0 °F69 %30.09 in10.0 miCalmClear
4:53 AM28.0 °F19.9 °F72 %30.10 in10.0 miCalmClear
5:53 AM28.0 °F21.9 °F78 %30.13 in10.0 miCalmClear
6:53 AM28.0 °F21.9 °F78 %30.14 in10.0 miCalmClear
7:53 AM33.1 °F24.1 °F70 %30.17 in10.0 miCalmClear
8:53 AM43.0 °F26.1 °F51 %30.18 in10.0 miSSW (210°)4.6 mphClear
10:53 AM55.9 °F28.0 °F34 %30.17 in10.0 miSW (220°)11.5 mph21.9 mphClear
11:53 AM59.0 °F27.0 °F29 %30.14 in10.0 miSW (220°)13.8 mph20.7 mphClear
12:53 PM61.0 °F28.9 °F30 %30.11 in10.0 miSSW (210°)9.2 mph18.4 mphClear
1:53 PM64.0 °F30.9 °F29 %30.09 in10.0 miWSW (240°)11.5 mph19.6 mphClear
2:53 PM64.9 °F30.9 °F28 %30.06 in10.0 miWSW (250°)12.7 mph24.2 mphClear
3:53 PM66.0 °F32.0 °F28 %30.03 in10.0 miSouth (190°)15.0 mph23.0 mphClear
4:53 PM66.0 °F30.9 °F27 %30.01 in10.0 miSouth (190°)13.8 mph26.5 mphClear
5:53 PM66.0 °F32.0 °F28 %30.00 in10.0 miSSW (200°)15.0 mph26.5 mphClear
6:53 PM64.0 °F32.0 °F30 %30.01 in10.0 miSSW (210°)13.8 mph21.9 mphClear
7:53 PM62.1 °F32.0 °F32 %30.00 in10.0 miSSW (200°)10.4 mphClear
8:53 PM61.0 °F30.9 °F32 %30.01 in10.0 miSSW (200°)9.2 mph17.3 mphClear
9:53 PM59.0 °F32.0 °F36 %30.00 in10.0 miSouth (190°)8.1 mphPartly Cloudy
10:53 PM57.9 °F33.1 °F39 %29.99 in10.0 miSSW (210°)11.5 mph18.4 mphMostly Cloudy
11:53 PM57.9 °F33.1 °F39 %29.99 in10.0 miSSW (210°)8.1 mph19.6 mphClear
Hourly data recorded from KFWN, located miles away from Matamoras, Pennsylvania







STORIES FROM OUR PARTNERS